Location: Cactus School
(34.5700°N, 118.0931°W)
Time: 06:31:27
(UTC-08:00)

OTV 5 (USA 277) - Pass Details

Date: 10 November 2017
Orbit: 404 x 417 km, 43.0° (Epoch: 07 September)

Event Time Altitude Azimuth Distance (km) Brightness Sun altitude
Exits shadow 03:54:41 11° 69° (ENE) 1,369 ? -30.4°
Drops below altitude 10° 03:54:49 11° 68° (ENE) 1,420 ? -30.4°
Sets 03:57:00 0° 64° (ENE) 2,315 ? -29.9°
